Location: �clusier
(49.9361°N, 2.7869°E)
Time: 08:13:57
(UTC+00:00)

Cosmos 1331 Rocket - Pass Details

Date: 16 June 2021
Orbit: 749 x 778 km, 74.0° (Epoch: 31 July)

Event Time Altitude Azimuth Distance (km) Brightness Sun altitude
Exits shadow 21:22:11 - 186° (S) 2,775 6.4 -9.7°
Reaches altitude 10° 21:23:27 10° 184° (S) 2,295 6.0 -9.8°
Maximum altitude 21:28:31 55° 107° (ESE) 921 4.2 -10.3°
Drops below altitude 10° 21:33:40 10° 31° (NNE) 2,330 6.9 -10.7°
Sets 21:36:06 0° 27° (NNE) 3,265 7.7 -10.9°
